Location: *
(45.9500°N, 9.0833°E)
Time: 16:11:27
(UTC+00:00)

OBJECT-B - Pass Details

Date: 03 March 2021
Orbit: 414 x 427 km, 97.0° (Epoch: 11 April)

Event Time Altitude Azimuth Distance (km) Brightness Sun altitude
Exits shadow 19:38:15 26° 321° (NW) 875 2.8 -25.7°
Drops below altitude 10° 19:39:55 10° 337° (NNW) 1,514 4.1 -26.0°
Sets 19:41:58 0° 343° (NNW) 2,381 5.1 -26.3°
